TimeMST,TemperatureF,Dew PointF,Humidity,Sea Level PressureIn,VisibilityMPH,Wind Direction,Wind SpeedMPH,Gust SpeedMPH,PrecipitationIn,Events,Conditions,WindDirDegrees,DateUTC
12:35 AM,26.6,10.4,51,30.35,10.0,SE,5.8,-,N/A,,Clear,130,2013-02-03 07:35:00
12:55 AM,26.6,10.4,51,30.34,10.0,SE,5.8,-,N/A,,Clear,140,2013-02-03 07:55:00
1:15 AM,26.6,10.4,51,30.33,10.0,ESE,6.9,-,N/A,,Clear,120,2013-02-03 08:15:00
1:35 AM,24.8,10.4,54,30.33,10.0,ESE,8.1,-,N/A,,Clear,110,2013-02-03 08:35:00
1:55 AM,26.6,10.4,51,30.33,10.0,ESE,8.1,-,N/A,,Clear,120,2013-02-03 08:55:00
2:15 AM,26.6,10.4,51,30.33,10.0,ESE,5.8,-,N/A,,Clear,110,2013-02-03 09:15:00
2:35 AM,26.6,8.6,47,30.33,10.0,ESE,4.6,-,N/A,,Clear,120,2013-02-03 09:35:00
2:55 AM,26.6,8.6,47,30.32,10.0,SE,6.9,-,N/A,,Clear,130,2013-02-03 09:55:00
3:15 AM,24.8,10.4,54,30.31,10.0,ESE,8.1,-,N/A,,Clear,120,2013-02-03 10:15:00
3:35 AM,26.6,8.6,47,30.31,10.0,ESE,6.9,-,N/A,,Scattered Clouds,110,2013-02-03 10:35:00
3:55 AM,26.6,10.4,51,30.29,10.0,ESE,8.1,-,N/A,,Clear,120,2013-02-03 10:55:00
4:15 AM,24.8,8.6,50,30.29,10.0,ESE,6.9,-,N/A,,Scattered Clouds,120,2013-02-03 11:15:00
4:35 AM,26.6,8.6,47,30.28,10.0,SE,8.1,-,N/A,,Clear,130,2013-02-03 11:35:00
4:55 AM,26.6,8.6,47,30.27,10.0,ESE,6.9,-,N/A,,Scattered Clouds,120,2013-02-03 11:55:00
5:15 AM,26.6,8.6,47,30.27,10.0,ESE,8.1,-,N/A,,Scattered Clouds,110,2013-02-03 12:15:00
5:35 AM,26.6,6.8,43,30.27,10.0,ESE,5.8,-,N/A,,Mostly Cloudy,110,2013-02-03 12:35:00
5:55 AM,26.6,5.0,40,30.26,10.0,ESE,8.1,-,N/A,,Mostly Cloudy,120,2013-02-03 12:55:00
6:15 AM,26.6,5.0,40,30.25,10.0,ESE,9.2,-,N/A,,Overcast,120,2013-02-03 13:15:00
6:35 AM,24.8,8.6,50,30.25,10.0,ESE,8.1,-,N/A,,Overcast,120,2013-02-03 13:35:00
6:55 AM,26.6,5.0,40,30.24,10.0,ESE,5.8,-,N/A,,Mostly Cloudy,110,2013-02-03 13:55:00
7:15 AM,28.4,6.8,40,30.24,10.0,ESE,4.6,-,N/A,,Clear,120,2013-02-03 14:15:00
7:35 AM,26.6,8.6,47,30.24,10.0,SE,6.9,-,N/A,,Scattered Clouds,130,2013-02-03 14:35:00
7:55 AM,28.4,6.8,40,30.24,10.0,ESE,4.6,-,N/A,,Mostly Cloudy,110,2013-02-03 14:55:00
8:15 AM,26.6,8.6,47,30.24,10.0,ESE,6.9,-,N/A,,Overcast,120,2013-02-03 15:15:00
8:35 AM,28.4,6.8,40,30.23,10.0,East,5.8,-,N/A,,Overcast,100,2013-02-03 15:35:00
8:55 AM,30.2,8.6,40,30.22,10.0,ESE,3.5,-,N/A,,Overcast,110,2013-02-03 15:55:00
9:15 AM,30.2,8.6,40,30.22,10.0,Calm,Calm,-,N/A,,Overcast,0,2013-02-03 16:15:00
9:35 AM,32.0,6.8,35,30.22,10.0,Calm,Calm,-,N/A,,Overcast,0,2013-02-03 16:35:00
9:55 AM,32.0,10.4,41,30.22,10.0,ESE,3.5,-,N/A,,Overcast,120,2013-02-03 16:55:00
10:15 AM,32.0,5.0,32,30.21,10.0,East,3.5,-,N/A,,Overcast,90,2013-02-03 17:15:00
10:35 AM,33.8,5.0,30,30.22,10.0,South,6.9,-,N/A,,Overcast,190,2013-02-03 17:35:00
10:55 AM,33.8,8.6,35,30.22,10.0,Calm,Calm,-,N/A,,Overcast,0,2013-02-03 17:55:00
11:15 AM,35.6,6.8,30,30.21,10.0,Calm,Calm,-,N/A,,Overcast,0,2013-02-03 18:15:00
11:35 AM,37.4,8.6,30,30.20,10.0,SSE,4.6,-,N/A,,Overcast,160,2013-02-03 18:35:00
11:55 AM,37.4,12.2,36,30.20,10.0,WSW,5.8,-,N/A,,Overcast,250,2013-02-03 18:55:00
12:15 PM,35.6,14.0,41,30.19,10.0,SW,4.6,-,N/A,,Overcast,230,2013-02-03 19:15:00
12:35 PM,37.4,14.0,38,30.17,10.0,SSW,3.5,-,N/A,,Overcast,200,2013-02-03 19:35:00
12:55 PM,35.6,23.0,60,30.16,10.0,WSW,4.6,-,N/A,,Overcast,240,2013-02-03 19:55:00
1:15 PM,35.6,21.2,56,30.16,10.0,SW,8.1,-,N/A,,Overcast,220,2013-02-03 20:15:00
1:55 PM,33.8,23.0,65,30.14,10.0,WSW,5.8,-,N/A,,Overcast,240,2013-02-03 20:55:00
2:15 PM,32.0,21.2,64,30.14,10.0,West,11.5,-,N/A,,Overcast,260,2013-02-03 21:15:00
2:35 PM,32.0,19.4,60,30.14,10.0,West,12.7,-,N/A,,Overcast,260,2013-02-03 21:35:00
2:55 PM,30.2,19.4,64,30.13,10.0,West,12.7,17.3,N/A,,Overcast,260,2013-02-03 21:55:00
3:15 PM,30.2,21.2,69,30.14,7.0,West,11.5,-,N/A,,Overcast,260,2013-02-03 22:15:00
3:35 PM,28.4,23.0,80,30.14,4.0,WSW,6.9,-,N/A,Snow,Light Snow,250,2013-02-03 22:35:00
3:55 PM,28.4,26.6,93,30.12,1.2,West,3.5,-,N/A,Snow,Light Snow,270,2013-02-03 22:55:00
4:15 PM,28.4,26.6,93,30.12,1.5,Calm,Calm,-,N/A,Snow,Light Snow,0,2013-02-03 23:15:00
4:35 PM,28.4,26.6,93,30.12,1.0,Calm,Calm,-,N/A,Snow,Light Snow,0,2013-02-03 23:35:00
4:55 PM,28.4,28.4,100,30.12,1.2,Calm,Calm,-,N/A,Snow,Light Snow,0,2013-02-03 23:55:00
5:15 PM,28.4,28.4,100,30.11,0.8,Calm,Calm,-,N/A,Snow,Light Snow,0,2013-02-04 00:15:00
5:35 PM,28.4,28.4,100,30.11,1.8,Calm,Calm,-,N/A,Snow,Light Snow,0,2013-02-04 00:35:00
5:55 PM,28.4,28.4,100,30.11,1.8,Calm,Calm,-,N/A,Snow,Light Snow,0,2013-02-04 00:55:00
6:35 PM,28.4,28.4,100,30.12,1.8,Calm,Calm,-,N/A,Snow,Light Snow,0,2013-02-04 01:35:00
6:55 PM,28.4,28.4,100,30.12,4.0,Calm,Calm,-,N/A,Snow,Light Snow,0,2013-02-04 01:55:00
7:15 PM,28.4,28.4,100,30.12,10.0,Calm,Calm,-,N/A,,Overcast,0,2013-02-04 02:15:00
7:35 PM,28.4,28.4,100,30.11,7.0,Calm,Calm,-,N/A,Snow,Light Snow,0,2013-02-04 02:35:00
7:55 PM,28.4,28.4,100,30.12,7.0,Calm,Calm,-,N/A,,Overcast,0,2013-02-04 02:55:00
8:15 PM,28.4,26.6,93,30.12,5.0,Calm,Calm,-,N/A,Snow,Light Snow,0,2013-02-04 03:15:00
8:35 PM,28.4,26.6,93,30.11,7.0,Calm,Calm,-,N/A,,Overcast,0,2013-02-04 03:35:00
8:55 PM,26.6,26.6,100,30.11,10.0,Calm,Calm,-,N/A,,Overcast,0,2013-02-04 03:55:00
9:15 PM,26.6,26.6,100,30.11,10.0,Calm,Calm,-,N/A,,Mostly Cloudy,0,2013-02-04 04:15:00
9:35 PM,26.6,26.6,100,30.12,10.0,Calm,Calm,-,N/A,,Overcast,0,2013-02-04 04:35:00
9:55 PM,26.6,24.8,93,30.12,7.0,Calm,Calm,-,N/A,,Mostly Cloudy,0,2013-02-04 04:55:00
10:15 PM,24.8,24.8,100,30.11,0.8,South,3.5,-,N/A,,Overcast,180,2013-02-04 05:15:00
10:35 PM,24.8,24.8,100,30.12,0.5,Calm,Calm,-,N/A,Fog,Light Freezing Fog,0,2013-02-04 05:35:00
10:55 PM,24.8,24.8,100,30.12,0.2,Calm,Calm,-,N/A,Fog,Light Freezing Fog,0,2013-02-04 05:55:00
11:15 PM,26.6,26.6,100,30.12,0.2,Calm,Calm,-,N/A,Fog,Light Freezing Fog,0,2013-02-04 06:15:00
11:35 PM,24.8,24.8,100,30.12,7.0,Calm,Calm,-,N/A,,Overcast,0,2013-02-04 06:35:00
11:55 PM,-9999,-9999,N/A,30.12,10.0,Calm,Calm,-,N/A,,Overcast,0,2013-02-04 06:55:00